| time (UTC) | temp F | wind direction | speed MPH | gust MPH | rain 1hr in | rain 24hr in | rain mn in | humidity % | barometer mb |
| 20260831112117 | 55 | 290 | 0.0 | 1.0 | 0.00 | 0.00 | 0.00 | 87 | 1013.3 |
| 20260831111944 | 55 | 290 | 0.0 | 1.0 | 0.00 | 0.00 | 0.00 | 87 | 1013.2 |
| 20260831111837 | 55 | 290 | 0.0 | 1.0 | 0.00 | 0.00 | 0.00 | 87 | 1013.3 |
| 20260831110600 | 55 | 290 | 0.0 | 2.0 | 0.00 | 0.00 | 0.00 | 87 | 1013.3 |
| 20260831110052 | 55 | 290 | 0.0 | 2.0 | 0.00 | 0.00 | 0.00 | 86 | 1013.4 |
| 20260831105547 | 55 | 289 | 0.0 | 3.0 | 0.00 | 0.00 | 0.00 | 86 | 1013.4 |
| 20260831105040 | 55 | 288 | 0.0 | 3.0 | 0.00 | 0.00 | 0.00 | 86 | 1013.4 |
| 20260831104535 | 56 | 323 | 0.0 | 2.0 | 0.00 | 0.00 | 0.00 | 85 | 1013.3 |
| 20260831104028 | 56 | 341 | 0.0 | 0.0 | 0.00 | 0.00 | 0.00 | 85 | 1013.4 |
| 20260831103522 | 56 | 341 | 0.0 | 2.0 | 0.00 | 0.00 | 0.00 | 85 | 1013.4 |
| 20260831103016 | 56 | 341 | 0.0 | 2.0 | 0.00 | 0.00 | 0.00 | 85 | 1013.4 |
| 20260831102511 | 56 | 5 | 0.0 | 1.0 | 0.00 | 0.00 | 0.00 | 85 | 1013.4 |
| 20260831102007 | 56 | 11 | 0.0 | 1.0 | 0.00 | 0.00 | 0.00 | 85 | 1013.5 |
| 20260831101511 | 56 | 5 | 0.0 | 2.0 | 0.00 | 0.00 | 0.00 | 84 | 1013.6 |
| 20260831101507 | 56 | 5 | 0.0 | 1.0 | 0.00 | 0.00 | 0.00 | 84 | 1013.6 |
| 20260831100506 | 56 | 5 | 0.0 | 3.0 | 0.00 | 0.00 | 0.00 | 84 | 1013.6 |
| 20260831100009 | 56 | 13 | 0.0 | 3.0 | 0.00 | 0.00 | 0.00 | 84 | 1013.6 |
| 20260831095506 | 56 | 21 | 0.0 | 0.0 | 0.00 | 0.00 | 0.00 | 83 | 1013.6 |
| 20260831095006 | 56 | 21 | 0.0 | 0.0 | 0.00 | 0.00 | 0.00 | 83 | 1013.8 |
| 20260831094506 | 56 | 21 | 0.0 | 0.0 | 0.00 | 0.00 | 0.00 | 83 | 1013.9 |
| 20260831094007 | 56 | 21 | 0.0 | 0.0 | 0.00 | 0.00 | 0.00 | 82 | 1013.9 |
| 20260831093507 | 56 | 21 | 0.0 | 0.0 | 0.00 | 0.00 | 0.00 | 82 | 1013.9 |
| 20260831093002 | 57 | 21 | 0.0 | 1.0 | 0.00 | 0.00 | 0.00 | 82 | 1014.0 |
| 20260831092502 | 57 | 21 | 0.0 | 1.0 | 0.00 | 0.00 | 0.00 | 82 | 1014.1 |
| 20260831092003 | 57 | 5 | 0.0 | 0.0 | 0.00 | 0.00 | 0.00 | 82 | 1014.2 |
| 20260831091503 | 57 | 5 | 0.0 | 0.0 | 0.00 | 0.00 | 0.00 | 82 | 1014.2 |
| 20260831091002 | 57 | 5 | 0.0 | 0.0 | 0.00 | 0.00 | 0.00 | 82 | 1014.3 |
| 20260831090503 | 57 | 5 | 0.0 | 1.0 | 0.00 | 0.00 | 0.00 | 81 | 1014.3 |
| 20260831090002 | 58 | 5 | 0.0 | 2.0 | 0.00 | 0.00 | 0.00 | 81 | 1014.3 |
| 20260831085502 | 58 | 5 | 0.0 | 2.0 | 0.00 | 0.00 | 0.00 | 81 | 1014.4 |
| 20260831085004 | 58 | 27 | 0.0 | 1.0 | 0.00 | 0.00 | 0.00 | 81 | 1014.5 |
| 20260831084458 | 58 | 27 | 0.0 | 1.0 | 0.00 | 0.00 | 0.00 | 81 | 1014.5 |
| 20260831083959 | 58 | 279 | 0.0 | 0.0 | 0.00 | 0.00 | 0.00 | 81 | 1014.6 |
| 20260831083501 | 58 | 279 | 0.0 | 1.0 | 0.00 | 0.00 | 0.00 | 80 | 1014.6 |
| 20260831082959 | 58 | 279 | 0.0 | 1.0 | 0.00 | 0.00 | 0.00 | 80 | 1014.8 |
| 20260831082457 | 58 | 278 | 0.0 | 1.0 | 0.00 | 0.00 | 0.00 | 80 | 1014.8 |
| 20260831081956 | 58 | 278 | 0.0 | 1.0 | 0.00 | 0.00 | 0.00 | 80 | 1014.8 |
| 20260831081452 | 58 | 278 | 0.0 | 1.0 | 0.00 | 0.00 | 0.00 | 80 | 1014.7 |
| 20260831080952 | 58 | 278 | 0.0 | 1.0 | 0.00 | 0.00 | 0.00 | 80 | 1014.9 |
| 20260831080452 | 58 | 301 | 0.0 | 2.0 | 0.00 | 0.00 | 0.00 | 80 | 1014.8 |
| 20260831075951 | 58 | 301 | 0.0 | 2.0 | 0.00 | 0.00 | 0.00 | 80 | 1014.8 |
| 20260831075448 | 58 | 304 | 0.0 | 1.0 | 0.00 | 0.00 | 0.00 | 79 | 1014.9 |
| 20260831074950 | 59 | 355 | 0.0 | 1.0 | 0.00 | 0.00 | 0.00 | 79 | 1015.0 |
| 20260831074946 | 58 | 294 | 0.0 | 0.0 | 0.00 | 0.00 | 0.00 | 79 | 1015.0 |
| 20260831073942 | 59 | 355 | 0.0 | 2.0 | 0.00 | 0.00 | 0.00 | 79 | 1015.0 |
| 20260831073440 | 59 | 355 | 0.0 | 2.0 | 0.00 | 0.00 | 0.00 | 78 | 1015.0 |
| 20260831072938 | 59 | 268 | 0.0 | 2.0 | 0.00 | 0.00 | 0.00 | 78 | 1015.0 |
| 20260831072439 | 59 | 265 | 0.0 | 1.0 | 0.00 | 0.00 | 0.00 | 78 | 1014.9 |
| 20260831071942 | 59 | 269 | 0.0 | 0.0 | 0.00 | 0.00 | 0.00 | 77 | 1015.0 |
| 20260831071938 | 59 | 269 | 0.0 | 0.0 | 0.00 | 0.00 | 0.00 | 77 | 1014.9 |
| 20260831070932 | 60 | 269 | 0.0 | 2.0 | 0.00 | 0.00 | 0.00 | 76 | 1015.1 |
| 20260831070426 | 60 | 269 | 0.0 | 2.0 | 0.00 | 0.00 | 0.00 | 76 | 1015.0 |
| 20260831065921 | 60 | 261 | 0.0 | 1.0 | 0.00 | 0.00 | 0.00 | 75 | 1015.1 |
| 20260831065415 | 60 | 350 | 0.0 | 1.0 | 0.00 | 0.00 | 0.00 | 75 | 1015.1 |
| 20260831064909 | 60 | 355 | 0.0 | 1.0 | 0.00 | 0.00 | 0.00 | 75 | 1015.1 |
| 20260831064403 | 60 | 5 | 0.0 | 3.0 | 0.00 | 0.00 | 0.00 | 75 | 1015.3 |
| 20260831063857 | 60 | 5 | 0.0 | 3.0 | 0.00 | 0.00 | 0.00 | 74 | 1015.3 |
| 20260831063722 | 61 | 14 | 0.0 | 2.0 | 0.00 | 0.00 | 0.00 | 74 | 1015.4 |
| 20260831063617 | 61 | 14 | 0.0 | 2.0 | 0.00 | 0.00 | 0.00 | 73 | 1015.5 |
| 20260831062338 | 61 | 14 | 0.0 | 2.0 | 0.00 | 0.00 | 0.00 | 73 | 1015.5 |
| 20260831062334 | 61 | 14 | 0.0 | 2.0 | 0.00 | 0.00 | 0.00 | 73 | 1015.5 |
| 20260831061327 | 61 | 282 | 0.0 | 2.0 | 0.00 | 0.00 | 0.00 | 72 | 1015.6 |
| 20260831061323 | 62 | 282 | 0.0 | 2.0 | 0.00 | 0.00 | 0.00 | 72 | 1015.7 |
| 20260831060315 | 62 | 275 | 0.0 | 3.0 | 0.00 | 0.00 | 0.00 | 72 | 1015.7 |
| 20260831055809 | 62 | 346 | 0.0 | 3.0 | 0.00 | 0.00 | 0.00 | 72 | 1015.8 |
| 20260831055306 | 62 | 5 | 0.0 | 5.0 | 0.00 | 0.00 | 0.00 | 71 | 1015.7 |
| 20260831054758 | 62 | 5 | 1.0 | 5.0 | 0.00 | 0.00 | 0.00 | 71 | 1015.5 |
| 20260831054251 | 62 | 355 | 0.0 | 3.0 | 0.00 | 0.00 | 0.00 | 70 | 1015.6 |
| 20260831053747 | 62 | 319 | 0.0 | 4.0 | 0.00 | 0.00 | 0.00 | 70 | 1015.8 |
| 20260831053239 | 63 | 340 | 1.0 | 4.0 | 0.00 | 0.00 | 0.00 | 70 | 1015.8 |
| 20260831052734 | 63 | 318 | 1.0 | 5.0 | 0.00 | 0.00 | 0.00 | 70 | 1015.8 |
| 20260831052730 | 63 | 346 | 1.0 | 5.0 | 0.00 | 0.00 | 0.00 | 70 | 1015.9 |
| 20260831051722 | 63 | 25 | 0.0 | 2.0 | 0.00 | 0.00 | 0.00 | 69 | 1015.9 |
| 20260831051216 | 63 | 67 | 1.0 | 6.0 | 0.00 | 0.00 | 0.00 | 69 | 1016.1 |
| 20260831050708 | 63 | 283 | 1.0 | 6.0 | 0.00 | 0.00 | 0.00 | 68 | 1016.2 |
| 20260831050704 | 64 | 318 | 1.0 | 3.0 | 0.00 | 0.00 | 0.00 | 68 | 1016.3 |
| 20260831045927 | 64 | 339 | 1.0 | 6.0 | 0.00 | 0.00 | 0.00 | 68 | 1016.2 |
| 20260831045704 | 64 | 339 | 1.0 | 6.0 | 0.00 | 0.00 | 0.00 | 68 | 1016.2 |
| 20260831045151 | 64 | 38 | 0.0 | 6.0 | 0.00 | 0.00 | 0.00 | 67 | 1016.2 |
| 20260831044647 | 64 | 346 | 0.0 | 3.0 | 0.00 | 0.00 | 0.00 | 67 | 1016.1 |
| 20260831044139 | 64 | 0 | 0.0 | 8.0 | 0.00 | 0.00 | 0.00 | 66 | 1016.2 |
| 20260831043633 | 64 | 0 | 1.0 | 8.0 | 0.00 | 0.00 | 0.00 | 66 | 1016.2 |
| 20260831043629 | 65 | 14 | 1.0 | 5.0 | 0.00 | 0.00 | 0.00 | 66 | 1016.3 |
| 20260831042622 | 65 | 355 | 0.0 | 3.0 | 0.00 | 0.00 | 0.00 | 65 | 1016.2 |
| 20260831042117 | 65 | 5 | 0.0 | 3.0 | 0.00 | 0.00 | 0.00 | 64 | 1016.3 |
| 20260831041109 | 65 | 336 | 1.0 | 5.0 | 0.00 | 0.00 | 0.00 | 63 | 1016.2 |
| 20260831040614 | 66 | 351 | 1.0 | 3.0 | 0.00 | 0.00 | 0.00 | 62 | 1016.2 |
| 20260831040610 | 66 | 11 | 1.0 | 3.0 | 0.00 | 0.00 | 0.00 | 62 | 1016.2 |
| 20260831035608 | 66 | 40 | 1.0 | 3.0 | 0.00 | 0.00 | 0.00 | 62 | 1016.1 |
| 20260831035109 | 66 | 322 | 1.0 | 4.0 | 0.00 | 0.00 | 0.00 | 62 | 1016.1 |
| 20260831034612 | 67 | 74 | 1.0 | 4.0 | 0.00 | 0.00 | 0.00 | 62 | 1015.9 |
| 20260831034113 | 67 | 30 | 1.0 | 5.0 | 0.00 | 0.00 | 0.00 | 61 | 1016.0 |
| 20260831034108 | 67 | 26 | 1.0 | 4.0 | 0.00 | 0.00 | 0.00 | 61 | 1016.1 |
| 20260831033109 | 67 | 0 | 1.0 | 5.0 | 0.00 | 0.00 | 0.00 | 60 | 1016.0 |
| 20260831032609 | 67 | 64 | 2.0 | 6.0 | 0.00 | 0.00 | 0.00 | 60 | 1016.0 |
| 20260831032108 | 67 | 96 | 2.0 | 6.0 | 0.00 | 0.00 | 0.00 | 59 | 1016.1 |
| 20260831031609 | 68 | 313 | 2.0 | 6.0 | 0.00 | 0.00 | 0.00 | 60 | 1016.1 |
| 20260831031108 | 68 | 54 | 2.0 | 6.0 | 0.00 | 0.00 | 0.00 | 59 | 1016.1 |
| 20260831030611 | 68 | 51 | 1.0 | 7.0 | 0.00 | 0.00 | 0.00 | 59 | 1016.2 |
| 20260831030607 | 68 | 22 | 2.0 | 5.0 | 0.00 | 0.00 | 0.00 | 60 | 1016.2 |
| 20260831025607 | 69 | 57 | 2.0 | 7.0 | 0.00 | 0.00 | 0.00 | 59 | 1016.2 |
| 20260831025105 | 69 | 42 | 2.0 | 6.0 | 0.00 | 0.00 | 0.00 | 59 | 1016.2 |
| 20260831024604 | 69 | 28 | 2.0 | 5.0 | 0.00 | 0.00 | 0.00 | 59 | 1016.2 |
| 20260831024106 | 69 | 80 | 2.0 | 5.0 | 0.00 | 0.00 | 0.00 | 58 | 1016.2 |
| 20260831023604 | 69 | 69 | 2.0 | 8.0 | 0.00 | 0.00 | 0.00 | 58 | 1016.3 |
| 20260831023105 | 70 | 77 | 2.0 | 8.0 | 0.00 | 0.00 | 0.00 | 57 | 1016.2 |
| 20260831022605 | 70 | 83 | 2.0 | 6.0 | 0.00 | 0.00 | 0.00 | 57 | 1016.3 |
| 20260831022104 | 70 | 67 | 2.0 | 8.0 | 0.00 | 0.00 | 0.00 | 57 | 1016.3 |
| 20260831021605 | 70 | 64 | 2.0 | 8.0 | 0.00 | 0.00 | 0.00 | 56 | 1016.2 |
| 20260831021104 | 71 | 57 | 3.0 | 9.0 | 0.00 | 0.00 | 0.00 | 56 | 1016.2 |
| 20260831020605 | 71 | 103 | 2.0 | 9.0 | 0.00 | 0.00 | 0.00 | 56 | 1016.2 |
| 20260831020104 | 71 | 53 | 3.0 | 6.0 | 0.00 | 0.00 | 0.00 | 55 | 1016.2 |
| 20260831015605 | 71 | 62 | 3.0 | 10.0 | 0.00 | 0.00 | 0.00 | 55 | 1016.3 |
| 20260831015104 | 71 | 59 | 3.0 | 10.0 | 0.00 | 0.00 | 0.00 | 54 | 1016.4 |
| 20260831014609 | 72 | 319 | 2.0 | 9.0 | 0.00 | 0.00 | 0.00 | 54 | 1016.4 |
| 20260831014605 | 72 | 51 | 2.0 | 9.0 | 0.00 | 0.00 | 0.00 | 54 | 1016.4 |
| 20260831013605 | 72 | 71 | 2.0 | 8.0 | 0.00 | 0.00 | 0.00 | 54 | 1016.5 |
| 20260831013108 | 72 | 317 | 3.0 | 9.0 | 0.00 | 0.00 | 0.00 | 54 | 1016.6 |
| 20260831013104 | 72 | 295 | 3.0 | 9.0 | 0.00 | 0.00 | 0.00 | 54 | 1016.5 |
| 20260831012105 | 72 | 64 | 2.0 | 6.0 | 0.00 | 0.00 | 0.00 | 53 | 1016.5 |
| 20260831011606 | 72 | 29 | 3.0 | 7.0 | 0.00 | 0.00 | 0.00 | 53 | 1016.6 |
| 20260831011104 | 73 | 90 | 3.0 | 7.0 | 0.00 | 0.00 | 0.00 | 53 | 1016.6 |
| 20260831010611 | 73 | 92 | 3.0 | 11.0 | 0.00 | 0.00 | 0.00 | 52 | 1016.8 |
| 20260831010607 | 73 | 115 | 3.0 | 8.0 | 0.00 | 0.00 | 0.00 | 52 | 1016.6 |
| 20260831005607 | 74 | 26 | 2.0 | 8.0 | 0.00 | 0.00 | 0.00 | 52 | 1016.8 |
| 20260831005603 | 74 | 309 | 2.0 | 11.0 | 0.00 | 0.00 | 0.00 | 52 | 1016.7 |
| 20260831004603 | 74 | 355 | 3.0 | 8.0 | 0.00 | 0.00 | 0.00 | 52 | 1016.8 |
| 20260831004102 | 74 | 334 | 3.0 | 7.0 | 0.00 | 0.00 | 0.00 | 51 | 1016.9 |
| 20260831003603 | 74 | 68 | 3.0 | 11.0 | 0.00 | 0.00 | 0.00 | 51 | 1016.9 |
| 20260831003100 | 74 | 79 | 3.0 | 11.0 | 0.00 | 0.00 | 0.00 | 51 | 1017.0 |
| 20260831002559 | 74 | 351 | 4.0 | 10.0 | 0.00 | 0.00 | 0.00 | 51 | 1017.1 |
| 20260831002058 | 74 | 108 | 4.0 | 10.0 | 0.00 | 0.00 | 0.00 | 51 | 1017.0 |
| 20260831001828 | 74 | 284 | 3.0 | 9.0 | 0.00 | 0.00 | 0.00 | 50 | 1017.2 |
| 20260831001106 | 75 | 61 | 3.0 | 9.0 | 0.00 | 0.00 | 0.00 | 50 | 1017.2 |
| 20260831001102 | 75 | 53 | 3.0 | 7.0 | 0.00 | 0.00 | 0.00 | 49 | 1017.2 |
| 20260831000050 | 75 | 355 | 3.0 | 10.0 | 0.00 | 0.00 | 0.00 | 49 | 1017.2 |
| 20260830235545 | 75 | 61 | 2.0 | 9.0 | 0.00 | 0.00 | 0.00 | 50 | 1017.2 |
| 20260830235038 | 75 | 349 | 3.0 | 9.0 | 0.00 | 0.00 | 0.00 | 49 | 1017.4 |
| 20260830234533 | 75 | 60 | 3.0 | 11.0 | 0.00 | 0.00 | 0.00 | 49 | 1017.4 |
| 20260830234025 | 75 | 31 | 3.0 | 11.0 | 0.00 | 0.00 | 0.00 | 48 | 1017.6 |
| 20260830233525 | 76 | 93 | 2.0 | 7.0 | 0.00 | 0.00 | 0.00 | 46 | 1017.8 |
| 20260830233521 | 76 | 60 | 2.0 | 8.0 | 0.00 | 0.00 | 0.00 | 47 | 1017.6 |
| 20260830232509 | 76 | 159 | 2.0 | 8.0 | 0.00 | 0.00 | 0.00 | 46 | 1017.7 |
| 20260830232002 | 75 | 44 | 2.0 | 8.0 | 0.00 | 0.00 | 0.00 | 45 | 1017.9 |
| 20260830231455 | 75 | 188 | 2.0 | 8.0 | 0.00 | 0.00 | 0.00 | 46 | 1017.8 |
| 20260830230954 | 75 | 46 | 3.0 | 11.0 | 0.00 | 0.00 | 0.00 | 44 | 1018.0 |
| 20260830230950 | 75 | 29 | 3.0 | 11.0 | 0.00 | 0.00 | 0.00 | 46 | 1017.8 |
| 20260830225938 | 75 | 72 | 3.0 | 8.0 | 0.00 | 0.00 | 0.00 | 44 | 1018.0 |
| 20260830225432 | 76 | 189 | 2.0 | 6.0 | 0.00 | 0.00 | 0.00 | 45 | 1017.9 |
| 20260830224926 | 76 | 279 | 2.0 | 6.0 | 0.00 | 0.00 | 0.00 | 44 | 1018.2 |
| 20260830224419 | 76 | 54 | 2.0 | 8.0 | 0.00 | 0.00 | 0.00 | 44 | 1018.3 |
| 20260830223914 | 76 | 80 | 2.0 | 8.0 | 0.00 | 0.00 | 0.00 | 44 | 1018.4 |
| 20260830223407 | 76 | 32 | 2.0 | 12.0 | 0.00 | 0.00 | 0.00 | 48 | 1018.4 |
| 20260830222903 | 75 | 243 | 3.0 | 12.0 | 0.00 | 0.00 | 0.00 | 46 | 1018.6 |
| 20260830222356 | 75 | 111 | 3.0 | 9.0 | 0.00 | 0.00 | 0.00 | 45 | 1018.8 |
| 20260830221852 | 75 | 305 | 3.0 | 9.0 | 0.00 | 0.00 | 0.00 | 45 | 1018.8 |
| 20260830221343 | 75 | 132 | 3.0 | 9.0 | 0.00 | 0.00 | 0.00 | 45 | 1018.9 |
| 20260830220842 | 75 | 76 | 3.0 | 6.0 | 0.00 | 0.00 | 0.00 | 46 | 1018.9 |
| 20260830220837 | 75 | 317 | 2.0 | 6.0 | 0.00 | 0.00 | 0.00 | 46 | 1018.9 |
| 20260830215827 | 75 | 69 | 2.0 | 8.0 | 0.00 | 0.00 | 0.00 | 47 | 1019.1 |
| 20260830215320 | 75 | 254 | 2.0 | 6.0 | 0.00 | 0.00 | 0.00 | 50 | 1019.1 |
| 20260830214814 | 74 | 355 | 3.0 | 7.0 | 0.00 | 0.00 | 0.00 | 48 | 1019.1 |
| 20260830214310 | 74 | 55 | 3.0 | 8.0 | 0.00 | 0.00 | 0.00 | 47 | 1019.4 |
| 20260830213801 | 74 | 54 | 3.0 | 11.0 | 0.00 | 0.00 | 0.00 | 48 | 1019.1 |
| 20260830213256 | 74 | 54 | 2.0 | 11.0 | 0.00 | 0.00 | 0.00 | 47 | 1019.4 |
| 20260830212750 | 74 | 96 | 3.0 | 8.0 | 0.00 | 0.00 | 0.00 | 49 | 1019.4 |
| 20260830212244 | 75 | 355 | 3.0 | 8.0 | 0.00 | 0.00 | 0.00 | 49 | 1019.6 |
| 20260830211738 | 75 | 47 | 3.0 | 9.0 | 0.00 | 0.00 | 0.00 | 48 | 1019.7 |
| 20260830211236 | 74 | 93 | 2.0 | 7.0 | 0.00 | 0.00 | 0.00 | 49 | 1019.7 |
| 20260830211231 | 75 | 47 | 2.0 | 9.0 | 0.00 | 0.00 | 0.00 | 49 | 1019.7 |
| 20260830210220 | 74 | 296 | 2.0 | 8.0 | 0.00 | 0.00 | 0.00 | 50 | 1019.7 |
| 20260830205714 | 74 | 40 | 3.0 | 8.0 | 0.00 | 0.00 | 0.00 | 50 | 1019.7 |
| 20260830205208 | 74 | 69 | 3.0 | 6.0 | 0.00 | 0.00 | 0.00 | 51 | 1019.7 |
| 20260830204702 | 73 | 265 | 2.0 | 8.0 | 0.00 | 0.00 | 0.00 | 50 | 1019.8 |
| 20260830204201 | 73 | 72 | 3.0 | 9.0 | 0.00 | 0.00 | 0.00 | 51 | 1019.9 |
| 20260830204157 | 74 | 27 | 2.0 | 8.0 | 0.00 | 0.00 | 0.00 | 50 | 1019.8 |
| 20260830203154 | 73 | 49 | 3.0 | 9.0 | 0.00 | 0.00 | 0.00 | 51 | 1019.9 |
| 20260830202654 | 73 | 62 | 2.0 | 8.0 | 0.00 | 0.00 | 0.00 | 50 | 1019.9 |
| 20260830202153 | 73 | 76 | 2.0 | 5.0 | 0.00 | 0.00 | 0.00 | 53 | 1020.0 |
| 20260830201654 | 72 | 23 | 2.0 | 6.0 | 0.00 | 0.00 | 0.00 | 52 | 1020.1 |
| 20260830201158 | 71 | 355 | 3.0 | 8.0 | 0.00 | 0.00 | 0.00 | 53 | 1020.2 |
| 20260830201154 | 72 | 93 | 3.0 | 8.0 | 0.00 | 0.00 | 0.00 | 52 | 1020.2 |
| 20260830200154 | 71 | 62 | 3.0 | 9.0 | 0.00 | 0.00 | 0.00 | 53 | 1020.4 |
| 20260830195653 | 72 | 270 | 2.0 | 9.0 | 0.00 | 0.00 | 0.00 | 52 | 1020.3 |
| 20260830195156 | 72 | 321 | 2.0 | 8.0 | 0.00 | 0.00 | 0.00 | 53 | 1020.4 |
| 20260830194653 | 71 | 98 | 2.0 | 8.0 | 0.00 | 0.00 | 0.00 | 53 | 1020.4 |
| 20260830194155 | 71 | 51 | 2.0 | 8.0 | 0.00 | 0.00 | 0.00 | 54 | 1020.5 |
| 20260830193654 | 71 | 300 | 2.0 | 6.0 | 0.00 | 0.00 | 0.00 | 54 | 1020.5 |
| 20260830193153 | 70 | 209 | 2.0 | 8.0 | 0.00 | 0.00 | 0.00 | 54 | 1020.6 |
| 20260830192653 | 70 | 26 | 3.0 | 8.0 | 0.00 | 0.00 | 0.00 | 55 | 1020.7 |
| 20260830192152 | 70 | 64 | 3.0 | 8.0 | 0.00 | 0.00 | 0.00 | 54 | 1020.6 |
| 20260830191651 | 70 | 67 | 2.0 | 8.0 | 0.00 | 0.00 | 0.00 | 55 | 1020.7 |
| 20260830191151 | 70 | 37 | 2.0 | 8.0 | 0.00 | 0.00 | 0.00 | 57 | 1020.8 |
| 20260830190656 | 69 | 200 | 2.0 | 8.0 | 0.00 | 0.00 | 0.00 | 56 | 1020.7 |
| 20260830190652 | 69 | 179 | 2.0 | 8.0 | 0.00 | 0.00 | 0.00 | 56 | 1020.7 |
| 20260830185652 | 69 | 63 | 3.0 | 10.0 | 0.00 | 0.00 | 0.00 | 56 | 1020.7 |
| 20260830185156 | 68 | 59 | 2.0 | 9.0 | 0.00 | 0.00 | 0.00 | 57 | 1021.0 |
| 20260830185151 | 68 | 70 | 2.0 | 10.0 | 0.00 | 0.00 | 0.00 | 56 | 1020.9 |
| 20260830184152 | 68 | 38 | 2.0 | 9.0 | 0.00 | 0.00 | 0.00 | 57 | 1021.0 |
| 20260830183648 | 68 | 281 | 2.0 | 7.0 | 0.00 | 0.00 | 0.00 | 59 | 1021.1 |
| 20260830183147 | 68 | 23 | 2.0 | 7.0 | 0.00 | 0.00 | 0.00 | 61 | 1021.2 |
| 20260830182647 | 67 | 211 | 2.0 | 7.0 | 0.00 | 0.00 | 0.00 | 61 | 1021.3 |
| 20260830182147 | 67 | 309 | 2.0 | 7.0 | 0.00 | 0.00 | 0.00 | 62 | 1021.3 |
| 20260830181647 | 67 | 142 | 2.0 | 6.0 | 0.00 | 0.00 | 0.00 | 64 | 1021.3 |
| 20260830181153 | 66 | 355 | 2.0 | 6.0 | 0.00 | 0.00 | 0.00 | 64 | 1021.5 |
| 20260830180651 | 65 | 221 | 2.0 | 10.0 | 0.00 | 0.00 | 0.00 | 65 | 1021.3 |
| 20260830180151 | 65 | 17 | 2.0 | 10.0 | 0.00 | 0.00 | 0.00 | 64 | 1021.5 |
| 20260830175652 | 65 | 326 | 2.0 | 7.0 | 0.00 | 0.00 | 0.00 | 66 | 1021.4 |
| 20260830175149 | 64 | 238 | 2.0 | 9.0 | 0.00 | 0.00 | 0.00 | 69 | 1021.4 |
| 20260830175145 | 65 | 314 | 2.0 | 7.0 | 0.00 | 0.00 | 0.00 | 66 | 1021.4 |
| 20260830174140 | 64 | 215 | 2.0 | 9.0 | 0.00 | 0.00 | 0.00 | 71 | 1021.3 |
| 20260830173637 | 63 | 91 | 2.0 | 10.0 | 0.00 | 0.00 | 0.00 | 71 | 1021.3 |
| 20260830173136 | 63 | 15 | 2.0 | 10.0 | 0.00 | 0.00 | 0.00 | 72 | 1021.3 |
| 20260830172635 | 63 | 331 | 2.0 | 5.0 | 0.00 | 0.00 | 0.00 | 73 | 1021.3 |
| 20260830172136 | 62 | 0 | 2.0 | 7.0 | 0.00 | 0.00 | 0.00 | 74 | 1021.3 |
| 20260830171636 | 62 | 347 | 2.0 | 8.0 | 0.00 | 0.00 | 0.00 | 75 | 1021.3 |
| 20260830171135 | 61 | 11 | 1.0 | 8.0 | 0.00 | 0.00 | 0.00 | 76 | 1021.3 |
| 20260830170636 | 61 | 18 | 1.0 | 5.0 | 0.00 | 0.00 | 0.00 | 77 | 1021.3 |
| 20260830170135 | 60 | 63 | 1.0 | 5.0 | 0.00 | 0.00 | 0.00 | 78 | 1021.3 |
| 20260830165639 | 60 | 355 | 1.0 | 4.0 | 0.00 | 0.00 | 0.00 | 80 | 1021.3 |
| 20260830165136 | 59 | 17 | 1.0 | 4.0 | 0.00 | 0.00 | 0.00 | 81 | 1021.3 |
| 20260830164633 | 59 | 5 | 1.0 | 7.0 | 0.00 | 0.00 | 0.00 | 82 | 1021.4 |
| 20260830164136 | 58 | 293 | 1.0 | 7.0 | 0.00 | 0.00 | 0.00 | 84 | 1021.4 |
| 20260830163632 | 57 | 293 | 2.0 | 4.0 | 0.00 | 0.00 | 0.00 | 85 | 1021.4 |
| 20260830163131 | 57 | 334 | 1.0 | 4.0 | 0.00 | 0.00 | 0.00 | 87 | 1021.3 |
| 20260830162629 | 56 | 252 | 1.0 | 3.0 | 0.00 | 0.00 | 0.00 | 89 | 1021.4 |
| 20260830162128 | 56 | 331 | 1.0 | 4.0 | 0.00 | 0.00 | 0.00 | 90 | 1021.4 |
| 20260830161622 | 55 | 271 | 1.0 | 4.0 | 0.00 | 0.00 | 0.00 | 90 | 1021.5 |
| 20260830161118 | 55 | 255 | 1.0 | 3.0 | 0.00 | 0.00 | 0.00 | 91 | 1021.5 |
| 20260830160611 | 54 | 336 | 1.0 | 3.0 | 0.00 | 0.00 | 0.00 | 92 | 1021.5 |
| 20260830160106 | 54 | 338 | 0.0 | 3.0 | 0.00 | 0.00 | 0.00 | 92 | 1021.5 |
| 20260830155930 | 54 | 235 | 0.0 | 3.0 | 0.00 | 0.00 | 0.00 | 92 | 1021.6 |
| 20260830155825 | 53 | 235 | 1.0 | 3.0 | 0.00 | 0.00 | 0.00 | 92 | 1021.7 |
| 20260830154548 | 53 | 234 | 0.0 | 2.0 | 0.00 | 0.00 | 0.00 | 93 | 1021.6 |
| 20260830154041 | 53 | 242 | 0.0 | 2.0 | 0.00 | 0.00 | 0.00 | 93 | 1021.6 |
| 20260830153534 | 52 | 306 | 0.0 | 2.0 | 0.00 | 0.00 | 0.00 | 93 | 1021.5 |
| 20260830153029 | 52 | 307 | 0.0 | 2.0 | 0.00 | 0.00 | 0.00 | 93 | 1021.6 |
| 20260830152522 | 51 | 309 | 0.0 | 2.0 | 0.00 | 0.00 | 0.00 | 93 | 1021.6 |
| 20260830152017 | 51 | 309 | 1.0 | 2.0 | 0.00 | 0.00 | 0.00 | 93 | 1021.6 |
| 20260830152013 | 51 | 309 | 0.0 | 2.0 | 0.00 | 0.00 | 0.00 | 93 | 1021.7 |
| 20260830151004 | 51 | 309 | 0.0 | 1.0 | 0.00 | 0.00 | 0.00 | 92 | 1021.8 |
| 20260830150458 | 50 | 309 | 0.0 | 1.0 | 0.00 | 0.00 | 0.00 | 92 | 1021.9 |
| 20260830145952 | 50 | 309 | 0.0 | 2.0 | 0.00 | 0.00 | 0.00 | 92 | 1021.6 |
| 20260830145447 | 50 | 309 | 0.0 | 2.0 | 0.00 | 0.00 | 0.00 | 92 | 1021.7 |
| 20260830144940 | 50 | 309 | 0.0 | 2.0 | 0.00 | 0.00 | 0.00 | 92 | 1021.7 |
| 20260830144435 | 50 | 309 | 0.0 | 2.0 | 0.00 | 0.00 | 0.00 | 92 | 1021.7 |
| 20260830144431 | 50 | 296 | 0.0 | 1.0 | 0.00 | 0.00 | 0.00 | 92 | 1021.7 |
| 20260830143423 | 50 | 296 | 0.0 | 1.0 | 0.00 | 0.00 | 0.00 | 92 | 1021.6 |
| 20260830142917 | 50 | 296 | 0.0 | 1.0 | 0.00 | 0.00 | 0.00 | 92 | 1021.6 |
| 20260830142411 | 50 | 296 | 0.0 | 2.0 | 0.00 | 0.00 | 0.00 | 92 | 1021.6 |
| 20260830141906 | 50 | 296 | 0.0 | 2.0 | 0.00 | 0.00 | 0.00 | 92 | 1021.6 |
| 20260830141902 | 50 | 296 | 0.0 | 2.0 | 0.00 | 0.00 | 0.00 | 92 | 1021.5 |
| 20260830140853 | 50 | 296 | 0.0 | 1.0 | 0.00 | 0.00 | 0.00 | 91 | 1021.7 |
| 20260830140346 | 50 | 296 | 0.0 | 2.0 | 0.00 | 0.00 | 0.00 | 91 | 1021.8 |
| 20260830135842 | 50 | 296 | 0.0 | 2.0 | 0.00 | 0.00 | 0.00 | 91 | 1021.8 |
| 20260830135334 | 50 | 296 | 0.0 | 2.0 | 0.00 | 0.00 | 0.00 | 91 | 1021.7 |
| 20260830134830 | 50 | 296 | 0.0 | 2.0 | 0.00 | 0.00 | 0.00 | 91 | 1021.6 |
| 20260830134322 | 50 | 296 | 0.0 | 2.0 | 0.00 | 0.00 | 0.00 | 91 | 1021.6 |
| 20260830133816 | 50 | 296 | 0.0 | 2.0 | 0.00 | 0.00 | 0.00 | 91 | 1021.7 |
| 20260830133312 | 50 | 296 | 0.0 | 1.0 | 0.00 | 0.00 | 0.00 | 91 | 1021.6 |
| 20260830132805 | 50 | 296 | 0.0 | 1.0 | 0.00 | 0.00 | 0.00 | 91 | 1021.7 |
| 20260830132800 | 50 | 296 | 0.0 | 1.0 | 0.00 | 0.00 | 0.00 | 90 | 1021.6 |
| 20260830131753 | 50 | 296 | 0.0 | 0.0 | 0.00 | 0.00 | 0.00 | 90 | 1021.6 |
| 20260830131247 | 50 | 296 | 0.0 | 0.0 | 0.00 | 0.00 | 0.00 | 90 | 1021.6 |
| 20260830130740 | 50 | 296 | 0.0 | 0.0 | 0.00 | 0.00 | 0.00 | 90 | 1021.5 |
| 20260830130736 | 50 | 296 | 0.0 | 0.0 | 0.00 | 0.00 | 0.00 | 90 | 1021.4 |
| 20260830125728 | 50 | 296 | 0.0 | 1.0 | 0.00 | 0.00 | 0.00 | 90 | 1021.4 |
| 20260830125223 | 50 | 296 | 0.0 | 1.0 | 0.00 | 0.00 | 0.00 | 90 | 1021.4 |
| 20260830124717 | 50 | 296 | 0.0 | 0.0 | 0.00 | 0.00 | 0.00 | 90 | 1021.3 |
| 20260830124211 | 50 | 296 | 0.0 | 0.0 | 0.00 | 0.00 | 0.00 | 90 | 1021.3 |
| 20260830123715 | 50 | 296 | 0.0 | 2.0 | 0.00 | 0.00 | 0.00 | 90 | 1021.3 |
| 20260830123710 | 50 | 296 | 0.0 | 1.0 | 0.00 | 0.00 | 0.00 | 90 | 1021.2 |
| 20260830123049 | 50 | 296 | 0.0 | 1.0 | 0.00 | 0.00 | 0.00 | 90 | 1021.2 |
| 20260830122940 | 50 | 296 | 0.0 | 2.0 | 0.00 | 0.00 | 0.00 | 90 | 1021.1 |
| 20260830121709 | 51 | 296 | 0.0 | 1.0 | 0.00 | 0.00 | 0.00 | 90 | 1021.3 |
| 20260830121208 | 51 | 296 | 0.0 | 1.0 | 0.00 | 0.00 | 0.00 | 90 | 1021.4 |
| 20260830120710 | 51 | 296 | 0.0 | 1.0 | 0.00 | 0.00 | 0.00 | 90 | 1021.3 |
| 20260830120208 | 51 | 296 | 0.0 | 1.0 | 0.00 | 0.00 | 0.00 | 90 | 1021.4 |
| 20260830115713 | 51 | 296 | 0.0 | 2.0 | 0.00 | 0.00 | 0.00 | 90 | 1021.4 |
| 20260830115709 | 51 | 296 | 0.0 | 1.0 | 0.00 | 0.00 | 0.00 | 90 | 1021.4 |
| 20260830114708 | 51 | 296 | 0.0 | 2.0 | 0.00 | 0.00 | 0.00 | 89 | 1021.3 |
| 20260830114205 | 51 | 296 | 0.0 | 0.0 | 0.00 | 0.00 | 0.00 | 89 | 1021.2 |
| 20260830113704 | 51 | 296 | 0.0 | 1.0 | 0.00 | 0.00 | 0.00 | 89 | 1021.2 |
| 20260830113206 | 51 | 296 | 0.0 | 1.0 | 0.00 | 0.00 | 0.00 | 89 | 1021.1 |
| 20260830112705 | 51 | 296 | 0.0 | 0.0 | 0.00 | 0.00 | 0.00 | 89 | 1021.0 |